Weather History for KINL - April, 2013

Change the Weather History Date:

Friday, April 5, 2013

  Actual Average Record
Temperature  
Mean Temperature 20 °F 34 °F  
Max Temperature 37 °F 46 °F 75 °F (1991)
Min Temperature 3 °F 22 °F -5 °F (1982)
Degree Days  
Heating Degree Days 45 31  
Month to date heating degree days 222 161  
Since 1 July heating degree days 9291 9027  
Cooling Degree Days 0 0  
Month to date cooling degree days 0 0  
Year to date cooling degree days 0 0  
Moisture  
Dew Point 12 °F    
Average Humidity 64    
Maximum Humidity 92    
Minimum Humidity 35    
Precipitation  
Precipitation T in 0.04 in 0.54 in (1997)
Month to date precipitation T 0.20  
Year to date precipitation 4.81 2.34  
Snow  
Snow T in 0.30 in 2.90 in (1995)
Month to date snowfall T 1.4  
Since 1 July snowfall 85.0 65.8  
Snow Depth 19.00 in    
Sea Level Pressure  
Sea Level Pressure 30.20 in    
Wind  
Wind Speed 4 mph (SSE)    
Max Wind Speed 12 mph    
Max Gust Speed 16 mph    
Visibility 10 miles    
Events      
T = Trace of Precipitation, MM = Missing Value Source: NWS Daily Summary

Daily Weather History Graph

Daily Weather History Graph

Search for Another Location

Airport or City:

Trip Planner

Search our weather history database for the weather conditions in past years. The results will help you decide how hot, cold, wet, or windy it might be!

Date:

Astronomy

Apr. 05, 2013 Rise Set
Actual Time 6:42 AM CDT 7:50 PM CDT
Civil Twilight 6:10 AM CDT 8:22 PM CDT
Nautical Twilight 5:31 AM CDT 9:01 PM CDT
Astronomical Twilight 4:50 AM CDT 9:43 PM CDT
Moon 4:12 AM CDT 2:54 PM CDT
Length of Visible Light 14h 12m
Length of Day
13h 07m
Waning Crescent, 23% of the Moon is Illuminated
Apr 5
Waning Crescent
Apr 10
New
Apr 18
First Quarter
Apr 25
Full
May 2
Last Quarter

Hourly Weather History & Observations

Time (CDT) Temp. Windchill Dew Point Humidity Pressure Visibility Wind Dir Wind Speed Gust Speed Precip Events Conditions
12:55 AM 17.1 °F - 9.0 °F 71% 30.27 in 10.0 mi Calm Calm - N/A   Clear
1:55 AM 16.0 °F - 8.1 °F 71% 30.27 in 10.0 mi Calm Calm - N/A   Clear
2:55 AM 10.0 °F - 6.1 °F 84% 30.29 in 10.0 mi Calm Calm - N/A   Clear
3:55 AM 8.1 °F - 3.9 °F 83% 30.29 in 10.0 mi Calm Calm - N/A   Clear
4:55 AM 6.1 °F - 1.0 °F 80% 30.30 in 10.0 mi Calm Calm - N/A   Clear
5:55 AM 3.9 °F - 1.0 °F 88% 30.31 in 10.0 mi Calm Calm - N/A   Clear
6:55 AM 5.0 °F - 1.4 °F 85% 30.23 in 10.0 mi Calm Calm - N/A   Clear
7:55 AM 10.9 °F - 8.1 °F 88% 30.31 in 10.0 mi Calm Calm - N/A   Clear
8:55 AM 19.9 °F - 12.0 °F 71% 30.30 in 10.0 mi Calm Calm - N/A   Clear
9:55 AM 26.1 °F 20.5 °F 12.0 °F 55% 30.28 in 10.0 mi SSE 4.6 mph - N/A   Clear
10:55 AM 28.0 °F 21.7 °F 12.0 °F 51% 30.26 in 10.0 mi SE 5.8 mph - N/A   Clear
11:55 AM 30.9 °F 26.2 °F 10.9 °F 43% 30.25 in 10.0 mi South 4.6 mph - N/A   Clear
12:55 PM 33.1 °F 30.0 °F 12.0 °F 42% 30.22 in 10.0 mi Variable 3.5 mph - N/A   Clear
1:55 PM 35.1 °F 31.0 °F 10.9 °F 37% 30.20 in 10.0 mi Variable 4.6 mph - N/A   Clear
2:55 PM 35.1 °F 29.3 °F 12.0 °F 39% 30.17 in 10.0 mi Variable 6.9 mph - N/A   Partly Cloudy
3:55 PM 36.0 °F 30.3 °F 12.9 °F 39% 30.14 in 10.0 mi SE 6.9 mph - N/A   Scattered Clouds
4:55 PM 37.0 °F 34.5 °F 12.0 °F 36% 30.12 in 10.0 mi Variable 3.5 mph - N/A   Partly Cloudy
5:55 PM 37.0 °F 31.6 °F 12.9 °F 37% 30.10 in 10.0 mi SSE 6.9 mph - N/A   Overcast
6:55 PM 36.0 °F 29.0 °F 16.0 °F 44% 30.09 in 10.0 mi SE 9.2 mph - N/A   Overcast
7:55 PM 34.0 °F 31.0 °F 18.0 °F 52% 30.07 in 10.0 mi SE 3.5 mph - N/A   Overcast
8:55 PM 34.0 °F - 18.0 °F 52% 30.06 in 10.0 mi Calm Calm - N/A   Overcast
9:55 PM 33.1 °F 27.7 °F 21.0 °F 61% 30.06 in 8.0 mi SSW 5.8 mph - N/A   Overcast
10:55 PM 30.9 °F 22.8 °F 23.0 °F 72% 30.04 in 9.0 mi SSE 9.2 mph - 0.00 in   Overcast
11:55 PM 30.9 °F 22.8 °F 25.0 °F 79% 30.02 in 10.0 mi SE 9.2 mph - 0.00 in   Overcast